QPF
0.02 0.03 0.03 0.04 0.02 0.01 0.01 0.01 0.02 0.03 0.05 0.11 0.07 0.08 0.08 0.04 0.02 0.04 0.03 0.02 0.02 0.01 0.01 0.01 0.01 0.01 0.01 0.01 0.01 0.01 0.01 0.02 0.04 0.05 0.05 0.05 0.04 0.04 0.04 0.04 0.03 0.02 0.01 0.02
0.01 0.02 0.02 0.03 0.01 0.01 0.01 0.01 0.01 0.02 0.05 0.11 0.10 0.06 0.04 0.02 0.01 0.02 0.03 0.03 0.02 0.01 0.00 0.01 0.01 0.01 0.01 0.01 0.00 0.01 0.02 0.02 0.03 0.04 0.05 0.06 0.05 0.03 0.04 0.04 0.03 0.02 0.01 0.01
0.01 0.01 0.02 0.03 0.03 0.01 0.01 0.01 0.01 0.05 0.08 0.06 0.07 0.04 0.01 0.01 0.01 0.01 0.03 0.03 0.02 0.02 0.01 0.01 0.01 0.01 0.01 0.01 0.01 0.02 0.03 0.03 0.03 0.06 0.06 0.06 0.05 0.03 0.02 0.03 0.03 0.02 0.01 0.01
0.03 0.04 0.04 0.03 0.03 0.02 0.01 0.01 0.01 0.05 0.05 0.05 0.05 0.04 0.02 0.01 0.01 0.00 0.01 0.01 0.02 0.02 0.02 0.01 0.01 0.01 0.01 0.01 0.01 0.03 0.05 0.04 0.04 0.06 0.07 0.05 0.03 0.02 0.02 0.02 0.02 0.02 0.01 0.01
0.04 0.06 0.05 0.05 0.02 0.03 0.04 0.03 0.01 0.02 0.04 0.06 0.05 0.04 0.04 0.02 0.00 0.00 0.00 0.00 0.01 0.01 0.01 0.02 0.01 0.02 0.02 0.01 0.01 0.01 0.03 0.03 0.02 0.04 0.05 0.05 0.03 0.03 0.03 0.02 0.01 0.02 0.02 0.02
0.05 0.06 0.07 0.06 0.02 0.03 0.06 0.06 0.03 0.02 0.07 0.10 0.06 0.10 0.08 0.02 0.00 0.00 0.00 0.00 0.01 0.01 0.00 0.01 0.02 0.03 0.02 0.01 0.01 0.01 0.01 0.01 0.02 0.02 0.03 0.03 0.03 0.04 0.04 0.02 0.02 0.02 0.02 0.02
0.06 0.07 0.08 0.05 0.02 0.03 0.08 0.11 0.05 0.03 0.05 0.06 0.06 0.08 0.07 0.04 0.02 0.01 0.01 0.01 0.01 0.01 0.01 0.01 0.02 0.02 0.02 0.02 0.01 0.00 0.00 0.01 0.02 0.02 0.01 0.02 0.03 0.03 0.02 0.02 0.02 0.02 0.02 0.02
0.07 0.09 0.10 0.05 0.03 0.07 0.08 0.05 0.03 0.04 0.03 0.03 0.03 0.04 0.05 0.04 0.03 0.02 0.02 0.03 0.05 0.03 0.02 0.03 0.03 0.03 0.03 0.04 0.03 0.02 0.01 0.01 0.02 0.02 0.02 0.01 0.01 0.02 0.02 0.02 0.02 0.02 0.03 0.03
0.11 0.12 0.11 0.07 0.06 0.06 0.03 0.02 0.03 0.03 0.04 0.03 0.02 0.02 0.02 0.03 0.03 0.03 0.03 0.04 0.08 0.05 0.03 0.03 0.03 0.03 0.04 0.04 0.04 0.03 0.03 0.03 0.02 0.02 0.02 0.02 0.02 0.02 0.02 0.02 0.02 0.02 0.02 0.02
0.09 0.11 0.11 0.09 0.06 0.04 0.02 0.02 0.03 0.03 0.03 0.03 0.03 0.04 0.03 0.03 0.04 0.04 0.04 0.04 0.05 0.03 0.02 0.03 0.04 0.03 0.03 0.04 0.05 0.05 0.04 0.04 0.03 0.02 0.02 0.03 0.03 0.03 0.02 0.02 0.02 0.02 0.03 0.04
0.10 0.10 0.10 0.09 0.06 0.03 0.01 0.02 0.03 0.02 0.02 0.02 0.04 0.06 0.04 0.04 0.04 0.04 0.05 0.05 0.05 0.05 0.05 0.05 0.05 0.04 0.04 0.05 0.06 0.06 0.06 0.05 0.03 0.02 0.02 0.03 0.04 0.04 0.03 0.03 0.03 0.03 0.03 0.03
0.12 0.10 0.09 0.07 0.05 0.03 0.01 0.02 0.03 0.03 0.03 0.05 0.06 0.04 0.04 0.04 0.04 0.04 0.04 0.04 0.06 0.06 0.07 0.06 0.07 0.07 0.07 0.08 0.07 0.08 0.08 0.06 0.05 0.04 0.04 0.03 0.03 0.03 0.03 0.03 0.03 0.04 0.03 0.03
0.06 0.07 0.06 0.04 0.03 0.03 0.02 0.03 0.04 0.04 0.03 0.07 0.09 0.07 0.04 0.04 0.04 0.04 0.04 0.04 0.03 0.03 0.04 0.05 0.06 0.06 0.07 0.09 0.09 0.11 0.11 0.10 0.08 0.06 0.05 0.04 0.04 0.04 0.04 0.04 0.05 0.04 0.04 0.04
0.06 0.07 0.06 0.05 0.04 0.04 0.04 0.05 0.04 0.04 0.03 0.04 0.05 0.06 0.05 0.04 0.04 0.05 0.05 0.04 0.04 0.03 0.04 0.05 0.06 0.06 0.07 0.08 0.09 0.10 0.12 0.13 0.12 0.09 0.08 0.07 0.07 0.07 0.07 0.06 0.06 0.07 0.06 0.06
0.06 0.09 0.06 0.05 0.05 0.05 0.07 0.07 0.06 0.06 0.04 0.04 0.04 0.05 0.06 0.05 0.05 0.05 0.05 0.04 0.04 0.04 0.05 0.05 0.05 0.06 0.06 0.07 0.09 0.10 0.11 0.12 0.14 0.14 0.13 0.11 0.10 0.11 0.11 0.10 0.10 0.09 0.08 0.06
0.06 0.07 0.07 0.06 0.07 0.09 0.08 0.07 0.07 0.08 0.05 0.04 0.05 0.09 0.09 0.07 0.06 0.06 0.06 0.05 0.04 0.03 0.04 0.04 0.04 0.04 0.04 0.05 0.06 0.08 0.09 0.11 0.12 0.11 0.11 0.10 0.09 0.09 0.09 0.08 0.08 0.07 0.07 0.06
0.09 0.11 0.10 0.10 0.09 0.08 0.08 0.07 0.06 0.07 0.08 0.09 0.09 0.15 0.13 0.07 0.07 0.07 0.06 0.06 0.05 0.05 0.04 0.04 0.04 0.04 0.04 0.04 0.04 0.05 0.06 0.07 0.06 0.06 0.06 0.06 0.06 0.06 0.07 0.07 0.07 0.07 0.06 0.04
0.12 0.12 0.11 0.11 0.10 0.08 0.06 0.06 0.06 0.07 0.11 0.13 0.08 0.10 0.11 0.07 0.06 0.06 0.05 0.05 0.06 0.06 0.05 0.05 0.05 0.05 0.05 0.05 0.05 0.04 0.05 0.05 0.05 0.05 0.06 0.06 0.06 0.05 0.05 0.05 0.05 0.06 0.06 0.05
0.09 0.08 0.07 0.07 0.06 0.06 0.05 0.05 0.05 0.06 0.08 0.08 0.07 0.08 0.10 0.09 0.08 0.08 0.08 0.07 0.08 0.08 0.09 0.08 0.08 0.07 0.06 0.06 0.06 0.07 0.06 0.07 0.08 0.08 0.08 0.07 0.06 0.06 0.05 0.05 0.06 0.07 0.07 0.06
0.07 0.08 0.07 0.06 0.05 0.04 0.04 0.05 0.05 0.05 0.06 0.07 0.08 0.08 0.09 0.09 0.09 0.10 0.10 0.09 0.09 0.11 0.13 0.14 0.12 0.12 0.13 0.12 0.12 0.10 0.08 0.09 0.09 0.09 0.09 0.08 0.07 0.07 0.06 0.07 0.07 0.06 0.06 0.06
0.09 0.10 0.08 0.06 0.06 0.06 0.05 0.05 0.06 0.06 0.07 0.08 0.09 0.10 0.09 0.09 0.08 0.07 0.07 0.07 0.07 0.06 0.06 0.08 0.09 0.11 0.13 0.13 0.13 0.11 0.11 0.11 0.12 0.12 0.11 0.10 0.10 0.09 0.08 0.07 0.07 0.06 0.05 0.04
0.11 0.10 0.10 0.08 0.06 0.06 0.06 0.06 0.07 0.06 0.07 0.09 0.10 0.09 0.08 0.08 0.07 0.06 0.06 0.05 0.06 0.06 0.06 0.05 0.05 0.06 0.06 0.08 0.08 0.08 0.08 0.08 0.08 0.09 0.09 0.09 0.08 0.08 0.08 0.07 0.07 0.06 0.05 0.04
0.11 0.09 0.08 0.08 0.08 0.07 0.06 0.06 0.07 0.06 0.05 0.06 0.07 0.07 0.06 0.05 0.04 0.04 0.04 0.03 0.04 0.04 0.05 0.05 0.05 0.04 0.04 0.04 0.04 0.04 0.05 0.05 0.05 0.05 0.06 0.06 0.06 0.05 0.06 0.06 0.06 0.06 0.06 0.06
0.12 0.09 0.07 0.08 0.09 0.07 0.07 0.06 0.05 0.04 0.04 0.04 0.04 0.03 0.02 0.02 0.01 0.01 0.01 0.01 0.01 0.02 0.02 0.02 0.03 0.03 0.03 0.03 0.04 0.04 0.04 0.04 0.04 0.03 0.03 0.03 0.04 0.04 0.04 0.04 0.04 0.05 0.06 0.06
0.14 0.12 0.11 0.10 0.09 0.09 0.08 0.05 0.04 0.03 0.02 0.02 0.02 0.01 0.01 0.01 0.00 0.00 0.00 0.00 0.00 0.00 0.00 0.00 0.01 0.01 0.01 0.02 0.02 0.02 0.03 0.03 0.03 0.03 0.04 0.03 0.03 0.03 0.03 0.03 0.04 0.04 0.05 0.05
0.11 0.12 0.11 0.11 0.09 0.08 0.05 0.03 0.03 0.02 0.01 0.01 0.01 0.00 0.00 0.00 0.00 0.00 0.00 0.00 0.00 0.00 0.00 0.00 0.00 0.00 0.00 0.00 0.00 0.01 0.01 0.02 0.02 0.02 0.02 0.03 0.03 0.03 0.03 0.03 0.02 0.03 0.03 0.03
0.07 0.06 0.07 0.08 0.07 0.05 0.03 0.02 0.02 0.01 0.01 0.00 0.00 0.00 0.00 0.00 0.00 0.00 0.00 0.00 0.00 0.00 0.00 0.00 0.00 0.00 0.00 0.00 0.00 0.00 0.00 0.00 0.00 0.01 0.01 0.01 0.01 0.02 0.02 0.02 0.02 0.02 0.02 0.01
MSLP
1000.07 1000.56 1001.00 1001.41 1001.77 1002.07 1002.28 1002.39 1002.36 1002.20 1001.92 1001.57 1001.20 1000.87 1000.66 1000.61 1000.75 1001.09 1001.60 1002.24 1002.96 1003.70 1004.43 1005.10 1005.72 1006.27 1006.78 1007.27 1007.75 1008.24 1008.75 1009.26 1009.77 1010.27 1010.74 1011.18 1011.60 1012.00 1012.40 1012.79 1013.20 1013.62 1014.05 1014.48
1000.73 1001.17 1001.49 1001.70 1001.82 1001.86 1001.83 1001.74 1001.60 1001.41 1001.20 1000.98 1000.79 1000.66 1000.62 1000.69 1000.89 1001.20 1001.61 1002.10 1002.65 1003.22 1003.79 1004.35 1004.89 1005.42 1005.94 1006.47 1007.02 1007.57 1008.13 1008.69 1009.24 1009.77 1010.26 1010.73 1011.16 1011.59 1012.00 1012.41 1012.83 1013.26 1013.68 1014.11
1001.58 1001.97 1002.19 1002.25 1002.18 1002.02 1001.80 1001.57 1001.34 1001.13 1000.97 1000.86 1000.80 1000.81 1000.88 1001.01 1001.19 1001.43 1001.72 1002.04 1002.39 1002.76 1003.16 1003.59 1004.04 1004.54 1005.06 1005.63 1006.22 1006.84 1007.45 1008.06 1008.64 1009.20 1009.71 1010.19 1010.65 1011.08 1011.51 1011.94 1012.37 1012.80 1013.24 1013.66
1002.43 1002.77 1002.91 1002.87 1002.68 1002.40 1002.08 1001.76 1001.49 1001.29 1001.17 1001.13 1001.16 1001.25 1001.37 1001.51 1001.65 1001.79 1001.92 1002.06 1002.22 1002.40 1002.63 1002.93 1003.29 1003.73 1004.25 1004.82 1005.45 1006.09 1006.74 1007.38 1007.99 1008.55 1009.08 1009.57 1010.03 1010.48 1010.92 1011.35 1011.80 1012.24 1012.68 1013.11
1003.06 1003.35 1003.44 1003.35 1003.11 1002.78 1002.42 1002.09 1001.83 1001.66 1001.60 1001.62 1001.71 1001.84 1001.98 1002.09 1002.17 1002.20 1002.19 1002.17 1002.15 1002.17 1002.25 1002.43 1002.70 1003.08 1003.57 1004.13 1004.76 1005.41 1006.07 1006.70 1007.31 1007.87 1008.39 1008.87 1009.33 1009.78 1010.22 1010.66 1011.11 1011.56 1012.01 1012.45
1003.31 1003.55 1003.60 1003.50 1003.27 1002.96 1002.64 1002.36 1002.15 1002.04 1002.04 1002.12 1002.26 1002.41 1002.54 1002.62 1002.64 1002.58 1002.46 1002.31 1002.16 1002.05 1002.02 1002.10 1002.30 1002.62 1003.06 1003.59 1004.18 1004.81 1005.44 1006.05 1006.63 1007.16 1007.66 1008.12 1008.57 1009.00 1009.44 1009.89 1010.34 1010.80 1011.26 1011.71
1003.18 1003.34 1003.37 1003.28 1003.09 1002.85 1002.61 1002.42 1002.30 1002.27 1002.34 1002.47 1002.64 1002.80 1002.93 1002.98 1002.95 1002.83 1002.64 1002.41 1002.18 1002.00 1001.89 1001.90 1002.04 1002.31 1002.69 1003.17 1003.71 1004.28 1004.85 1005.41 1005.94 1006.44 1006.90 1007.34 1007.76 1008.19 1008.62 1009.07 1009.53 1009.99 1010.46 1010.93
1002.76 1002.84 1002.84 1002.77 1002.64 1002.49 1002.35 1002.26 1002.24 1002.30 1002.43 1002.60 1002.80 1002.97 1003.08 1003.11 1003.05 1002.90 1002.67 1002.41 1002.15 1001.93 1001.80 1001.76 1001.85 1002.06 1002.37 1002.78 1003.24 1003.74 1004.24 1004.73 1005.20 1005.65 1006.08 1006.49 1006.91 1007.33 1007.77 1008.22 1008.69 1009.17 1009.65 1010.12
1002.30 1002.30 1002.26 1002.20 1002.12 1002.05 1002.00 1002.01 1002.08 1002.20 1002.38 1002.58 1002.78 1002.94 1003.04 1003.05 1002.96 1002.80 1002.57 1002.30 1002.04 1001.81 1001.65 1001.59 1001.63 1001.77 1002.00 1002.32 1002.69 1003.09 1003.50 1003.92 1004.33 1004.73 1005.14 1005.55 1005.97 1006.41 1006.87 1007.35 1007.84 1008.33 1008.83 1009.32
1002.09 1001.99 1001.91 1001.85 1001.80 1001.78 1001.81 1001.88 1002.00 1002.16 1002.34 1002.54 1002.72 1002.84 1002.91 1002.89 1002.79 1002.61 1002.37 1002.11 1001.84 1001.61 1001.43 1001.32 1001.29 1001.35 1001.48 1001.69 1001.94 1002.23 1002.55 1002.89 1003.24 1003.63 1004.03 1004.46 1004.92 1005.40 1005.90 1006.43 1006.96 1007.48 1008.01 1008.52
1002.36 1002.19 1002.06 1001.97 1001.93 1001.93 1001.98 1002.08 1002.20 1002.36 1002.52 1002.68 1002.80 1002.87 1002.87 1002.80 1002.66 1002.45 1002.20 1001.92 1001.63 1001.36 1001.12 1000.94 1000.82 1000.76 1000.76 1000.83 1000.94 1001.11 1001.33 1001.60 1001.92 1002.29 1002.72 1003.20 1003.72 1004.28 1004.86 1005.45 1006.04 1006.63 1007.19 1007.73
1003.25 1003.03 1002.85 1002.73 1002.66 1002.65 1002.69 1002.76 1002.87 1002.98 1003.08 1003.17 1003.21 1003.19 1003.11 1002.97 1002.76 1002.49 1002.18 1001.84 1001.49 1001.14 1000.81 1000.51 1000.25 1000.03 999.87 999.77 999.73 999.77 999.88 1000.08 1000.38 1000.76 1001.24 1001.79 1002.41 1003.07 1003.75 1004.44 1005.12 1005.78 1006.40 1006.98
1004.72 1004.45 1004.23 1004.07 1003.96 1003.91 1003.91 1003.95 1004.00 1004.04 1004.08 1004.07 1004.01 1003.90 1003.72 1003.48 1003.18 1002.82 1002.42 1001.99 1001.53 1001.06 1000.59 1000.13 999.69 999.28 998.92 998.64 998.43 998.33 998.34 998.48 998.76 999.17 999.71 1000.35 1001.08 1001.86 1002.67 1003.47 1004.25 1004.99 1005.67 1006.30
1006.56 1006.27 1006.00 1005.79 1005.64 1005.56 1005.51 1005.49 1005.49 1005.47 1005.43 1005.34 1005.19 1004.98 1004.71 1004.36 1003.95 1003.49 1002.98 1002.42 1001.82 1001.20 1000.56 999.91 999.27 998.65 998.09 997.61 997.23 996.99 996.91 996.99 997.26 997.70 998.31 999.05 999.89 1000.80 1001.73 1002.64 1003.52 1004.34 1005.09 1005.76
1008.50 1008.17 1007.87 1007.62 1007.44 1007.31 1007.23 1007.18 1007.13 1007.07 1006.98 1006.83 1006.61 1006.32 1005.96 1005.53 1005.03 1004.46 1003.83 1003.14 1002.40 1001.62 1000.80 999.96 999.12 998.31 997.55 996.89 996.36 995.99 995.82 995.86 996.12 996.59 997.25 998.08 999.02 1000.04 1001.07 1002.09 1003.05 1003.94 1004.73 1005.44
1010.24 1009.87 1009.53 1009.25 1009.04 1008.89 1008.80 1008.74 1008.68 1008.61 1008.50 1008.32 1008.08 1007.74 1007.33 1006.83 1006.26 1005.61 1004.88 1004.09 1003.22 1002.31 1001.34 1000.35 999.35 998.37 997.46 996.66 996.00 995.54 995.30 995.30 995.55 996.04 996.74 997.63 998.64 999.73 1000.84 1001.92 1002.93 1003.86 1004.68 1005.39
1011.53 1011.12 1010.76 1010.45 1010.23 1010.09 1010.01 1009.97 1009.94 1009.89 1009.79 1009.63 1009.38 1009.04 1008.61 1008.09 1007.48 1006.78 1006.00 1005.15 1004.21 1003.21 1002.16 1001.07 999.98 998.91 997.90 997.01 996.29 995.76 995.48 995.45 995.69 996.18 996.91 997.81 998.85 999.96 1001.09 1002.19 1003.22 1004.14 1004.96 1005.66
1012.29 1011.84 1011.44 1011.13 1010.92 1010.80 1010.76 1010.77 1010.78 1010.78 1010.73 1010.61 1010.39 1010.08 1009.67 1009.15 1008.54 1007.85 1007.07 1006.20 1005.26 1004.25 1003.19 1002.09 1000.99 999.90 998.88 997.98 997.24 996.71 996.40 996.36 996.58 997.06 997.76 998.65 999.66 1000.75 1001.85 1002.91 1003.90 1004.78 1005.55 1006.20
1012.54 1012.04 1011.64 1011.34 1011.16 1011.08 1011.10 1011.16 1011.24 1011.29 1011.29 1011.22 1011.05 1010.77 1010.40 1009.92 1009.35 1008.70 1007.97 1007.16 1006.28 1005.35 1004.36 1003.34 1002.31 1001.30 1000.35 999.51 998.81 998.30 998.01 997.96 998.16 998.59 999.23 1000.05 1000.99 1002.00 1003.01 1003.99 1004.89 1005.70 1006.39 1006.98
1012.44 1011.93 1011.53 1011.26 1011.13 1011.11 1011.18 1011.30 1011.43 1011.54 1011.58 1011.55 1011.41 1011.17 1010.84 1010.41 1009.90 1009.32 1008.68 1007.98 1007.23 1006.43 1005.59 1004.72 1003.84 1002.98 1002.16 1001.43 1000.82 1000.37 1000.10 1000.05 1000.21 1000.58 1001.13 1001.84 1002.66 1003.54 1004.42 1005.28 1006.07 1006.76 1007.36 1007.87
1012.21 1011.72 1011.36 1011.15 1011.07 1011.11 1011.23 1011.39 1011.56 1011.69 1011.76 1011.74 1011.62 1011.41 1011.10 1010.72 1010.28 1009.79 1009.26 1008.69 1008.10 1007.48 1006.83 1006.17 1005.49 1004.82 1004.17 1003.59 1003.09 1002.71 1002.47 1002.40 1002.51 1002.79 1003.23 1003.80 1004.47 1005.19 1005.92 1006.63 1007.28 1007.86 1008.36 1008.78
1012.06 1011.63 1011.34 1011.20 1011.18 1011.28 1011.44 1011.63 1011.81 1011.94 1012.00 1011.97 1011.84 1011.63 1011.34 1011.00 1010.62 1010.21 1009.80 1009.38 1008.96 1008.54 1008.10 1007.65 1007.19 1006.72 1006.25 1005.82 1005.43 1005.12 1004.91 1004.81 1004.85 1005.02 1005.32 1005.73 1006.23 1006.78 1007.35 1007.90 1008.42 1008.89 1009.29 1009.64
1012.12 1011.79 1011.60 1011.55 1011.60 1011.75 1011.93 1012.13 1012.30 1012.40 1012.43 1012.37 1012.22 1011.99 1011.70 1011.39 1011.06 1010.73 1010.43 1010.15 1009.89 1009.65 1009.40 1009.16 1008.89 1008.61 1008.31 1008.00 1007.71 1007.45 1007.24 1007.10 1007.05 1007.11 1007.26 1007.51 1007.83 1008.21 1008.62 1009.04 1009.44 1009.80 1010.13 1010.42
1012.46 1012.27 1012.19 1012.23 1012.35 1012.53 1012.74 1012.92 1013.07 1013.14 1013.12 1013.02 1012.83 1012.58 1012.30 1012.00 1011.71 1011.46 1011.24 1011.08 1010.96 1010.86 1010.78 1010.70 1010.59 1010.45 1010.28 1010.07 1009.84 1009.60 1009.37 1009.18 1009.04 1008.97 1008.98 1009.08 1009.24 1009.47 1009.73 1010.03 1010.33 1010.62 1010.89 1011.15
1013.07 1013.02 1013.06 1013.18 1013.36 1013.57 1013.78 1013.96 1014.07 1014.11 1014.05 1013.92 1013.71 1013.45 1013.16 1012.89 1012.64 1012.44 1012.30 1012.22 1012.20 1012.21 1012.24 1012.27 1012.27 1012.23 1012.13 1011.97 1011.77 1011.53 1011.27 1011.01 1010.79 1010.61 1010.50 1010.46 1010.49 1010.59 1010.74 1010.94 1011.16 1011.40 1011.64 1011.87
1013.89 1013.96 1014.10 1014.29 1014.52 1014.75 1014.96 1015.12 1015.21 1015.22 1015.15 1015.00 1014.79 1014.54 1014.28 1014.03 1013.82 1013.67 1013.58 1013.56 1013.59 1013.67 1013.76 1013.85 1013.90 1013.90 1013.84 1013.70 1013.50 1013.24 1012.95 1012.64 1012.35 1012.08 1011.88 1011.73 1011.66 1011.67 1011.73 1011.86 1012.03 1012.22 1012.44 1012.65
1014.83 1014.99 1015.20 1015.43 1015.68 1015.92 1016.12 1016.27 1016.36 1016.37 1016.31 1016.18 1016.00 1015.78 1015.56 1015.35 1015.18 1015.07 1015.01 1015.02 1015.08 1015.18 1015.28 1015.38 1015.44 1015.45 1015.39 1015.25 1015.04 1014.77 1014.46 1014.12 1013.78 1013.47 1013.20 1013.00 1012.86 1012.80 1012.81 1012.89 1013.01 1013.17 1013.36 1013.55
Thickness
5753 5754 5752 5752 5756 5761 5757 5756 5751 5755 5755 5754 5759 5765 5770 5778 5783 5781 5779 5777 5774 5771 5767 5765 5762 5760 5758 5755 5752 5749 5744 5740 5737 5735 5733 5731 5729 5727 5726 5725 5724 5723 5722 5721
5741 5748 5748 5746 5755 5760 5760 5761 5764 5762 5758 5767 5764 5769 5772 5778 5780 5778 5777 5776 5774 5771 5767 5764 5762 5760 5758 5755 5753 5750 5745 5741 5739 5736 5733 5730 5728 5727 5725 5724 5724 5722 5720 5719
5726 5736 5735 5730 5749 5756 5760 5767 5764 5753 5756 5764 5761 5763 5770 5778 5779 5778 5778 5777 5774 5771 5768 5766 5764 5762 5758 5756 5753 5749 5745 5742 5739 5736 5733 5730 5730 5727 5725 5723 5722 5720 5719 5719
5721 5721 5704 5739 5762 5763 5761 5763 5766 5761 5763 5764 5763 5766 5774 5778 5777 5777 5779 5778 5776 5773 5770 5768 5766 5763 5761 5757 5753 5748 5745 5742 5739 5736 5733 5731 5729 5727 5724 5723 5721 5719 5718 5718
5711 5706 5716 5739 5754 5757 5749 5745 5756 5755 5758 5761 5766 5767 5768 5776 5779 5778 5779 5779 5778 5776 5773 5769 5766 5763 5760 5756 5752 5748 5745 5743 5741 5738 5734 5731 5728 5726 5724 5722 5720 5719 5717 5716
5709 5699 5699 5721 5747 5759 5747 5726 5743 5749 5750 5754 5757 5743 5749 5769 5773 5774 5776 5777 5776 5776 5773 5768 5765 5763 5758 5755 5752 5749 5747 5745 5743 5740 5736 5732 5730 5727 5725 5722 5720 5718 5717 5716
5701 5698 5706 5728 5743 5746 5718 5714 5736 5741 5742 5745 5743 5742 5751 5762 5766 5769 5770 5771 5772 5771 5768 5766 5765 5761 5756 5754 5752 5752 5750 5747 5744 5741 5738 5734 5731 5728 5725 5722 5719 5717 5715 5715
5697 5689 5692 5722 5727 5717 5715 5729 5732 5733 5736 5737 5738 5743 5748 5751 5755 5760 5763 5764 5764 5763 5763 5763 5762 5758 5753 5751 5753 5753 5750 5747 5743 5741 5739 5736 5731 5727 5724 5720 5717 5714 5713 5712
5690 5691 5704 5713 5712 5715 5720 5721 5724 5725 5730 5731 5731 5734 5739 5743 5747 5751 5755 5756 5756 5757 5756 5757 5757 5755 5750 5750 5751 5750 5747 5744 5742 5739 5737 5736 5731 5726 5722 5719 5716 5714 5711 5709
5684 5690 5698 5703 5707 5711 5714 5715 5718 5720 5722 5724 5723 5727 5730 5735 5739 5742 5746 5747 5749 5749 5748 5748 5750 5750 5750 5749 5748 5745 5742 5740 5739 5736 5734 5732 5729 5726 5721 5718 5715 5713 5711 5709
5674 5681 5689 5693 5697 5701 5705 5709 5709 5711 5714 5715 5717 5719 5723 5726 5730 5733 5737 5739 5741 5740 5740 5741 5743 5743 5745 5745 5744 5740 5738 5736 5734 5733 5731 5728 5725 5723 5720 5718 5717 5712 5711 5709
5664 5673 5676 5680 5689 5694 5694 5697 5699 5700 5703 5707 5710 5711 5716 5719 5723 5726 5728 5730 5732 5732 5733 5734 5735 5735 5737 5739 5737 5734 5731 5730 5730 5729 5727 5725 5720 5716 5713 5712 5710 5708 5705 5704
5667 5671 5673 5678 5683 5687 5688 5690 5693 5694 5696 5699 5702 5705 5709 5711 5715 5717 5719 5720 5721 5723 5725 5726 5727 5727 5729 5730 5730 5728 5725 5725 5725 5724 5723 5721 5717 5712 5707 5702 5700 5699 5697 5695
5666 5667 5666 5669 5673 5679 5681 5684 5686 5687 5690 5692 5694 5697 5701 5703 5705 5706 5707 5709 5712 5713 5714 5716 5716 5717 5721 5722 5721 5721 5720 5719 5717 5717 5717 5716 5713 5710 5707 5702 5696 5692 5688 5685
5658 5660 5661 5663 5667 5670 5673 5675 5675 5676 5679 5682 5685 5688 5691 5692 5693 5694 5696 5699 5701 5702 5703 5704 5704 5705 5709 5711 5711 5711 5711 5711 5710 5710 5710 5709 5708 5705 5702 5697 5692 5687 5683 5677
5648 5652 5655 5656 5658 5660 5662 5664 5664 5666 5669 5672 5674 5677 5680 5681 5681 5682 5684 5686 5687 5687 5689 5691 5692 5694 5697 5700 5700 5701 5701 5701 5702 5702 5701 5700 5699 5696 5692 5687 5683 5680 5675 5671
5638 5640 5643 5645 5649 5651 5653 5655 5657 5659 5661 5662 5663 5667 5669 5669 5669 5669 5670 5673 5674 5675 5677 5679 5681 5685 5688 5689 5691 5692 5692 5692 5691 5692 5691 5690 5688 5685 5682 5678 5674 5671 5667 5663
5635 5636 5640 5641 5644 5645 5647 5648 5649 5649 5650 5651 5654 5656 5656 5656 5656 5656 5658 5660 5661 5662 5664 5667 5670 5673 5675 5677 5679 5681 5681 5680 5680 5679 5678 5677 5676 5674 5672 5668 5663 5659 5656 5652
5630 5633 5636 5638 5639 5639 5639 5639 5639 5640 5641 5642 5643 5643 5643 5643 5644 5644 5646 5647 5646 5646 5648 5653 5655 5660 5661 5663 5666 5667 5668 5667 5666 5665 5664 5661 5661 5660 5657 5654 5651 5648 5644 5640
5625 5628 5630 5631 5633 5632 5631 5631 5631 5631 5631 5632 5633 5633 5632 5632 5633 5634 5634 5633 5632 5633 5636 5639 5643 5644 5646 5649 5651 5653 5653 5653 5651 5650 5649 5648 5646 5644 5642 5640 5637 5634 5631 5627
5617 5620 5621 5622 5623 5624 5623 5623 5623 5622 5622 5623 5622 5622 5622 5622 5622 5623 5623 5621 5620 5622 5625 5627 5629 5629 5632 5633 5637 5638 5638 5637 5636 5634 5633 5632 5630 5628 5627 5625 5622 5619 5615 5611
5609 5610 5611 5613 5614 5614 5614 5614 5614 5613 5613 5613 5613 5612 5612 5611 5611 5611 5610 5610 5610 5611 5614 5615 5616 5615 5617 5621 5623 5623 5622 5622 5622 5621 5620 5618 5616 5613 5611 5608 5605 5603 5599 5596
5600 5601 5603 5603 5604 5604 5605 5605 5604 5604 5603 5603 5602 5601 5601 5601 5601 5600 5597 5598 5600 5600 5602 5601 5601 5602 5604 5609 5609 5609 5608 5607 5606 5605 5604 5602 5600 5597 5595 5592 5589 5585 5581 5577
5591 5592 5593 5594 5595 5595 5594 5593 5594 5594 5594 5594 5593 5593 5592 5592 5590 5590 5588 5586 5587 5589 5589 5587 5588 5590 5592 5595 5594 5593 5592 5590 5590 5588 5587 5586 5583 5580 5577 5574 5571 5567 5563 5559
5581 5582 5584 5584 5585 5585 5585 5586 5586 5585 5586 5584 5584 5583 5584 5582 5581 5579 5579 5578 5577 5579 5579 5578 5578 5578 5580 5579 5579 5577 5575 5573 5572 5571 5568 5566 5564 5561 5558 5555 5551 5548 5545 5541
5571 5572 5572 5574 5575 5576 5578 5578 5577 5576 5575 5574 5572 5572 5572 5571 5570 5570 5570 5569 5569 5568 5569 5568 5567 5566 5566 5565 5563 5561 5559 5557 5555 5553 5550 5547 5545 5542 5538 5535 5532 5530 5527 5523
5563 5564 5565 5566 5566 5568 5569 5568 5566 5564 5564 5563 5562 5562 5561 5560 5560 5560 5560 5560 5559 5558 5557 5556 5555 5553 5551 5549 5547 5544 5542 5539 5537 5534 5532 5529 5526 5523 5521 5518 5515 5512 5509 5507